Date,TemperatureHighF,TemperatureAvgF,TemperatureLowF,DewpointHighF,DewpointAvgF,DewpointLowF,HumidityHigh,HumidityAvg,HumidityLow,PressureMaxIn,PressureMinIn,WindSpeedMaxMPH,WindSpeedAvgMPH,GustSpeedMaxMPH,PrecipitationSumIn
2013-7-1,88,78,67,62,59,56,79,54,34,30.00,29.90,18,4,18,0.00
2013-7-2,86,72,64,60,57,51,78,59,33,30.06,29.98,15,2,15,0.00
2013-7-3,94,78,62,62,54,45,89,50,20,30.03,29.90,14,1,14,0.00
2013-7-4,98,83,72,64,59,49,71,47,21,29.97,29.84,24,4,24,0.00
2013-7-5,99,86,71,66,62,56,74,47,27,29.96,29.81,15,3,15,0.00
2013-7-6,98,87,73,69,63,57,72,46,27,29.90,29.80,16,4,21,0.00
2013-7-7,99,88,76,72,66,60,73,51,30,29.95,29.86,14,4,14,0.00
2013-7-8,99,87,78,75,71,62,81,60,38,30.03,29.92,17,4,17,0.00
2013-7-9,102,89,78,72,66,59,80,49,26,30.07,29.91,17,4,17,0.00
2013-7-10,104,92,82,74,68,62,71,48,28,30.00,29.83,16,4,16,0.00
2013-7-11,105,90,82,73,70,65,71,53,29,29.91,29.81,23,3,23,0.00
2013-7-12,103,89,75,73,70,66,85,57,31,29.92,29.81,16,3,16,0.00
2013-7-13,103,90,80,72,68,60,72,50,32,29.95,29.81,17,4,17,0.00
2013-7-14,84,73,69,70,65,58,93,78,45,29.98,29.84,16,2,16,0.37
2013-7-15,73,71,67,72,68,66,96,93,86,30.06,29.93,9,1,9,0.52
2013-7-16,91,77,71,75,72,69,97,85,54,30.19,30.04,34,2,34,0.88
2013-7-17,93,78,70,77,72,67,98,81,50,30.19,30.09,17,2,17,0.27
2013-7-18,97,83,71,75,71,68,96,70,42,30.15,29.95,11,1,11,0.00
2013-7-19,98,83,75,76,72,66,90,72,37,30.00,29.87,28,3,28,0.00
2013-7-20,98,83,74,75,71,67,89,68,39,29.94,29.80,26,2,26,0.00
2013-7-21,97,86,75,76,72,68,88,66,43,29.88,29.78,18,4,18,0.00
2013-7-22,99,88,77,76,73,69,89,64,39,29.92,29.79,14,5,17,0.00
2013-7-23,100,89,80,78,73,66,82,59,43,29.91,29.75,18,5,19,0.00
2013-7-24,99,86,76,74,70,66,83,60,37,30.02,29.80,23,4,23,0.03
2013-7-25,96,86,74,77,72,69,86,64,45,30.01,29.91,16,2,16,0.00
2013-7-26,95,85,77,79,73,70,93,69,48,29.97,29.81,16,4,16,0.23
2013-7-27,93,82,73,72,67,60,84,63,36,29.99,29.86,15,4,15,0.00
2013-7-28,95,82,68,72,68,64,93,64,42,29.95,29.82,16,3,16,0.00
2013-7-29,97,87,78,76,72,63,84,62,40,29.94,29.85,20,5,20,0.00
2013-7-30,99,88,78,74,70,63,80,56,39,30.03,29.88,21,5,21,0.00
2013-7-31,105,91,79,75,70,65,70,51,34,30.00,29.84,11,3,13,0.00